Miscellaneous Local Product
Issued by NWS Hastings, NE

Home | Current Version | Previous Version | Text Only | Print | Product List | Glossary On
Versions: 1 2 3 4 5 6 7 8 9 10 11 12 13 14 15 16 17 18 19 20 21 22 23 24 25 26 27 28 29 30 31 32 33 34 35 36 37 38 39 40 41 42 43 44 45 46 47 48 49 50
225
AXUS43 KGID 301502
MISGRI

GID CWA HOURLY WEATHER ROUNDUP
NATIONAL WEATHER SERVICE HASTINGS NE
1000 AM CDT SAT APR 30 2016

NOTE: "FAIR" INDICATES FEW OR NO CLOUDS BELOW 12,000 FEET WITH NO
SIGNIFICANT WEATHER AND/OR OBSTRUCTIONS TO VISIBILITY.

...SOUTH CENTRAL NEBRASKA...

CITY           SKY/WX    TMP DP  RH WIND       PRES   REMARKS
GRAND ISLAND   LGT RAIN  43  41  93 NE16      29.74R FOG
HASTINGS       LGT RAIN  43  42  97 NE14      29.72S FOG
KEARNEY        CLOUDY    43  39  87 N16       29.75R
ORD            LGT RAIN  41  39  93 NE15      29.77S FOG
YORK           PTSUNNY   45  43  93 NE14      29.71S FOG
AURORA         CLOUDY    44  43  99 NE14      29.72S FOG
LEXINGTON      DRIZZLE   40  38  92 N13       29.77S WCI  33
HOLDREGE       CLOUDY    41  40  96 N13       29.74S FOG
HEBRON         CLOUDY    47  46  96 NE7       29.69R FOG

...NEBRASKA PANHANDLE...

CITY           SKY/WX    TMP DP  RH WIND       PRES   REMARKS
CHADRON        LGT RAIN  39  37  92 NE14G29   30.00S FOG     WCI  31
ALLIANCE       LGT SNOW  33  33 100 N24G33    29.89R VSB 1   WCI  20
SCOTTSBLUFF    MIX PCPN  35  31  85 N20       29.94R WCI  24
SIDNEY         LGT SNOW  33  31  92 N20       29.89R VSB 3/4 WCI  21

...WESTERN AND NORTH CENTRAL NEBRASKA...

CITY           SKY/WX    TMP DP  RH WIND       PRES   REMARKS
VALENTINE      LGT RAIN  39  36  89 NE18G29   29.92S WCI  30
AINSWORTH      SNOW      33  32  98 NE14      29.90R VSB 1/2 WCI  23
ONEILL         RAIN      41  39  93 NE22      29.85F
BROKEN BOW     MIX PCPN  36  34  92 N18       29.78S FOG     WCI  26
IMPERIAL       FLURRIES  34  32  92 N14       29.82S WCI  25
NORTH PLATTE   LGT SNOW  34  32  92 N16       29.81S FOG     WCI  24
MCCOOK         MIX PCPN  37  35  92 N13       29.80R FOG     WCI  29

...EASTERN NEBRASKA...

CITY           SKY/WX    TMP DP  RH WIND       PRES   REMARKS
NORFOLK        RAIN      42  40  92 NE17      29.75F FOG
SO SIOUX CITY  HVY RAIN  45  41  86 E14       29.81F FOG
TEKAMAH        HVY RAIN  45  43  93 E14       29.74F FOG
COLUMBUS       CLOUDY    43  36  75 NE16      29.74S
ALBION         LGT RAIN  42  40  93 NE14      29.77S
OMAHA EPPLEY   LGT RAIN  47  44  90 E9        29.71F
MILLARD        DRIZZLE   46  45  94 E3        29.70F
LINCOLN        LGT RAIN  47  45  93 NE13      29.70F FOG
NEBRASKA CITY  CLOUDY    49  49 100 E9        29.67S
BEATRICE       CLOUDY    48  47  97 NE8       29.67R FOG
FALLS CITY     CLOUDY    53  51  93 E12       29.64F

...NORTHERN KANSAS...

CITY           SKY/WX    TMP DP  RH WIND       PRES   REMARKS
GOODLAND       CLOUDY    33  32  96 NW16      29.81S FOG     WCI  23
HILL CITY      CLOUDY    43  40  89 NW14      29.78R
NORTON         CLOUDY    39  36  87 NW17      29.76R FOG     WCI  30
PHILLIPSBURG   CLOUDY    45  45 100 NW9       29.75S
SMITH CENTER   CLOUDY    45  45 100 N9        29.73S FOG
BELOIT         CLOUDY    45  45 100 CALM      29.71R
HAYS           CLOUDY    46  37  71 NW15      29.76R
RUSSELL        PTSUNNY   49  46  90 W12       29.73R
CONCORDIA      CLOUDY    49  47  93 W6        29.69S FOG
SALINA         PTSUNNY   54  49  83 W18       29.71R
TOPEKA         CLOUDY    58  54  86 W10       29.66R



USA.gov is the U.S. government's official web portal to all federal, state and local government web resources and services.